Temp
77 76 77 77 79 59 62 66 61 65 68 68 55 52 51 53 50 51 48 56 56 57 68 66 64 72 73 74 77 77 75 74 75 74 75 76 76 76 76 76 77 76 76 77 77 77 78 77 77 77 77 77 77 76 76 75 75 76 74 74 74 73 73
75 80 80 80 79 75 64 61 64 66 68 64 59 53 45 44 44 45 51 56 53 56 53 58 63 65 68 72 74 77 76 73 73 75 75 76 76 76 77 77 78 77 77 77 78 79 79 78 78 78 77 78 78 77 77 76 76 75 75 75 74 73 72
74 78 76 76 77 79 78 75 72 71 55 58 53 50 48 46 45 43 48 51 48 52 53 58 65 62 64 69 72 73 72 73 74 75 76 76 77 77 76 76 76 76 76 77 77 78 79 79 79 79 79 78 78 78 77 77 76 76 76 76 75 74 73
71 74 71 64 71 74 77 72 70 70 65 51 54 57 50 53 43 44 45 48 56 54 51 62 67 65 66 67 68 72 74 75 76 76 77 76 75 75 76 77 77 77 77 78 79 79 79 79 78 79 79 79 78 78 77 77 77 77 75 75 75 74 74
71 61 65 68 70 63 65 67 62 67 67 62 60 58 52 54 40 40 38 46 44 50 56 63 69 68 67 69 70 72 74 76 77 78 77 76 76 76 77 77 77 77 78 78 79 80 80 80 80 80 80 79 79 79 77 77 76 76 75 75 75 74 73
59 59 66 73 72 74 70 71 67 64 59 59 55 53 56 51 51 40 42 48 45 55 62 64 67 65 67 71 73 73 74 75 76 77 78 77 77 77 78 78 79 78 78 78 79 80 79 79 79 79 80 79 79 78 79 78 78 77 76 75 75 74 73
65 69 73 74 76 77 76 76 70 70 62 58 53 47 50 55 55 53 48 49 52 55 58 63 68 66 70 71 72 73 73 75 76 78 79 78 79 79 79 79 79 79 78 78 78 78 78 78 78 79 79 79 79 79 79 78 77 77 78 77 76 74 73
63 70 72 73 73 73 69 70 70 69 63 63 61 56 52 57 49 54 51 49 43 53 56 59 65 64 67 71 73 73 74 75 77 77 78 77 77 78 80 81 80 79 78 77 76 76 77 77 77 78 78 79 79 79 79 79 78 78 78 77 76 74 72
56 63 65 67 66 71 63 60 66 70 69 70 60 54 52 57 51 54 51 44 47 55 58 64 64 66 70 71 73 74 74 74 76 77 76 77 77 78 77 76 76 75 74 74 75 76 76 77 78 78 78 78 78 78 79 79 79 79 78 77 76 74 73
45 45 48 51 53 59 61 61 67 69 71 66 62 59 57 51 50 51 48 44 47 55 60 69 68 65 66 69 73 74 75 75 75 75 76 76 76 76 76 76 73 73 75 75 75 76 76 77 78 77 78 78 78 79 79 80 79 78 78 78 76 74 73
54 55 51 55 59 57 64 64 68 68 70 71 67 53 51 54 44 53 45 56 57 62 66 64 66 64 68 69 67 70 71 72 75 75 75 75 75 76 76 75 75 75 73 73 75 75 77 77 78 78 78 78 78 78 78 79 79 78 77 77 75 73 72
64 64 61 63 66 66 67 67 67 68 69 66 64 60 60 51 52 46 45 46 63 62 65 65 65 65 66 69 70 72 72 73 74 74 74 77 75 75 75 74 73 73 74 74 74 75 76 77 77 78 78 79 78 78 78 78 79 78 78 75 72 71 68
67 72 69 70 66 66 67 68 69 68 67 64 66 63 59 56 62 56 51 50 61 66 68 70 70 71 71 71 71 74 76 74 71 72 72 72 73 74 74 73 73 73 73 73 74 74 75 76 76 77 77 77 77 77 78 77 78 77 75 72 70 68 68
67 67 70 72 70 70 69 68 68 71 69 66 70 68 60 65 58 63 58 55 62 70 72 73 74 74 74 73 71 69 70 72 71 70 71 72 73 74 74 73 72 72 74 74 73 74 73 75 75 76 76 76 77 77 77 77 77 76 72 70 68 68 68
62 66 69 70 69 68 67 70 70 69 68 68 70 66 60 63 62 57 59 57 60 68 71 75 68 65 63 66 71 73 72 71 71 71 71 72 73 73 72 70 71 71 71 70 71 69 70 72 74 75 76 77 76 77 76 75 75 73 71 68 68 68 68
57 65 67 68 67 67 66 67 69 69 65 62 62 60 61 61 59 54 55 54 58 68 60 63 63 64 67 69 69 69 70 71 71 70 70 71 70 69 69 68 68 68 69 69 69 69 70 71 72 73 73 73 73 74 75 74 73 72 70 69 68 68 68
54 63 66 66 64 62 60 59 61 66 68 66 65 63 63 64 60 55 53 55 68 67 63 66 63 64 65 67 67 66 66 66 67 69 70 69 66 68 66 67 68 68 69 69 69 69 70 72 72 73 73 72 71 71 71 70 70 69 68 68 68 68 68
50 58 62 64 59 51 47 54 63 65 67 70 68 64 63 62 60 58 63 65 62 61 65 67 64 65 65 64 65 63 67 67 64 66 65 66 67 66 66 68 70 71 71 71 72 71 71 71 73 73 73 72 70 70 70 69 69 68 68 67 68 68 68
51 54 58 57 52 48 56 63 69 70 70 68 65 63 63 63 60 61 65 61 63 66 68 68 65 66 66 65 67 67 67 67 68 68 66 66 67 68 67 66 67 67 68 68 68 68 69 71 70 70 70 69 67 68 69 69 68 68 68 67 66 67 67
48 49 53 51 47 57 61 67 68 69 72 71 71 65 65 64 61 60 59 60 61 62 64 66 68 71 69 67 67 67 67 71 73 70 70 69 68 70 69 69 66 66 68 69 69 68 68 69 69 70 68 68 68 67 68 68 68 68 68 67 66 66 66
50 47 46 51 57 61 63 64 66 65 60 65 69 59 62 64 64 61 60 60 62 63 64 65 67 68 70 69 67 68 68 66 67 73 75 73 72 72 69 69 70 68 69 69 68 67 67 68 68 68 68 68 67 66 66 67 67 67 67 66 66 66 66
44 48 45 52 49 47 54 59 66 70 70 69 70 65 59 62 66 63 61 63 62 64 65 66 67 71 72 63 66 67 67 68 65 66 69 69 67 66 66 65 66 66 66 67 67 68 66 66 67 67 67 66 66 65 65 66 66 66 66 66 66 67 66
46 47 48 43 43 51 56 61 66 69 69 69 67 67 56 62 64 65 63 67 67 68 69 67 67 69 63 60 64 64 66 69 69 69 67 69 69 68 68 69 68 66 66 67 67 66 65 65 64 66 66 66 65 65 65 66 66 66 66 66 66 67 67
45 40 40 46 49 52 59 64 67 69 69 67 65 52 52 57 64 64 66 66 64 63 62 62 65 66 63 59 64 65 68 68 68 67 68 67 68 68 68 68 67 67 66 67 65 65 65 65 65 65 65 66 65 65 65 66 65 65 66 67 68 69 69
48 50 47 47 54 59 62 64 67 69 69 60 53 46 54 62 61 63 65 65 64 62 64 65 64 61 62 63 65 68 69 69 68 69 68 67 68 68 67 67 69 65 65 66 66 65 64 64 65 65 66 65 65 65 65 65 65 67 68 68 68 68 68
47 44 44 47 48 58 65 68 67 67 65 51 49 55 59 63 64 65 67 66 66 69 67 67 64 63 66 69 68 68 68 66 65 66 66 66 66 67 67 68 65 63 64 63 63 63 63 64 65 66 65 65 65 65 65 64 66 67 67 67 67 67 67
46 42 44 42 43 54 65 65 62 61 55 55 59 64 65 64 62 63 66 68 66 69 66 65 65 67 68 67 66 65 65 64 64 64 64 63 63 64 64 64 65 65 62 62 63 62 64 65 65 65 65 65 64 64 63 63 65 66 66 66 66 66 66
44 41 40 42 52 57 67 61 56 60 61 63 61 61 62 64 64 63 62 64 66 67 66 66 65 65 65 64 64 66 65 65 64 63 63 63 64 65 66 66 65 64 62 62 63 63 65 64 64 64 64 63 64 63 62 63 65 66 66 65 65 66 66
49 48 48 55 56 59 64 65 63 63 65 67 67 66 64 64 64 63 64 64 65 67 67 67 68 67 64 64 64 64 64 64 64 63 64 64 65 65 64 65 66 65 63 63 63 62 63 63 63 63 63 64 65 63 62 64 64 65 65 65 64 63 63
59 60 58 60 60 61 65 69 69 68 68 67 69 68 65 64 64 65 65 65 66 67 69 69 66 66 65 65 64 63 63 64 64 64 64 65 65 66 65 64 64 64 63 62 61 62 62 63 63 64 63 64 64 63 63 64 63 64 64 63 63 62 62
52 47 56 58 60 61 64 66 68 70 69 68 68 66 66 66 67 68 67 67 67 67 67 67 65 64 65 64 62 63 64 64 63 64 63 64 64 64 64 64 65 63 62 62 62 62 62 62 64 65 64 64 64 64 64 64 64 64 64 64 64 63 64
50 52 56 60 63 61 61 62 65 66 67 68 68 67 67 67 67 67 67 68 68 68 66 65 65 63 64 65 64 63 63 63 64 64 64 64 64 64 64 64 65 62 63 62 62 62 61 62 64 64 65 64 64 64 64 65 64 64 63 63 62 62 62
53 59 60 59 61 61 61 63 63 63 65 66 67 68 67 68 67 66 66 67 67 68 67 67 67 67 66 65 63 64 63 62 62 63 63 63 63 62 63 64 64 63 62 62 62 62 62 63 64 64 65 66 66 64 64 64 64 64 64 65 63 62 62
53 53 57 59 56 51 59 61 64 64 65 67 66 66 66 66 66 66 65 65 67 67 67 66 65 64 64 65 63 65 63 62 63 63 63 62 62 63 63 64 63 63 63 62 63 62 62 63 64 65 65 65 65 67 66 65 65 64 64 64 63 62 62
53 56 60 57 60 59 59 62 63 63 66 67 66 65 65 64 65 66 66 64 64 66 65 64 62 62 62 62 62 63 65 63 63 63 63 63 62 63 63 63 63 63 63 64 63 63 62 64 64 64 64 65 65 65 64 65 65 64 63 62 62 62 64
60 63 62 60 60 60 61 61 61 63 64 67 67 67 67 66 67 67 67 66 65 63 65 65 65 64 64 65 64 63 63 62 61 62 62 62 63 64 64 64 63 63 63 63 63 62 63 63 64 64 64 64 63 63 63 64 64 62 63 63 62 62 63
56 61 63 64 63 62 63 64 64 64 66 67 65 65 66 66 67 67 66 64 65 66 65 65 65 64 64 65 65 64 63 62 63 62 63 63 63 63 63 63 63 64 63 63 63 63 63 63 63 63 62 62 63 63 63 63 64 62 62 63 63 63 62
MSLP
1003.09 1002.89 1002.33 1003.05 1002.97 1009.97 1006.77 1007.01 1008.97 1007.01 1005.21 1006.17 1010.01 1012.33 1012.05 1011.77 1011.81 1012.41 1011.73 1009.81 1009.73 1006.81 1005.85 1005.13 1005.65 1005.29 1005.49 1005.41 1005.29 1005.49 1005.85 1006.05 1006.45 1007.09 1007.21 1007.29 1007.29 1007.57 1007.81 1007.93 1007.89 1008.09 1008.53 1008.77 1008.81 1009.01 1009.25 1009.45 1009.69 1009.77 1009.69 1009.69 1009.89 1010.21 1010.61 1010.89 1011.01 1011.21 1011.53 1011.73 1011.97 1012.21 1012.45
1002.49 1001.49 1001.45 1001.97 1002.05 1002.69 1005.21 1007.77 1006.25 1005.37 1005.53 1005.69 1007.85 1011.37 1012.57 1012.41 1013.85 1011.93 1012.13 1010.73 1010.05 1010.53 1010.53 1005.97 1006.77 1006.53 1006.21 1005.61 1005.41 1005.01 1005.29 1006.21 1006.69 1006.57 1006.65 1006.61 1006.77 1006.81 1006.73 1006.77 1006.93 1007.41 1007.73 1007.97 1008.17 1008.29 1008.49 1008.65 1008.69 1008.89 1009.09 1009.05 1009.29 1009.61 1009.85 1010.29 1010.61 1010.97 1011.01 1011.33 1011.65 1011.89 1012.25
1002.01 1001.09 1002.41 1003.41 1002.09 1001.61 1003.77 1004.57 1002.65 1005.69 1010.13 1010.49 1008.81 1009.37 1013.89 1014.29 1014.41 1012.61 1010.85 1010.73 1009.81 1009.25 1008.09 1006.37 1006.49 1006.73 1006.93 1006.13 1005.49 1005.73 1006.25 1006.41 1006.09 1006.01 1006.01 1005.89 1006.05 1006.57 1006.93 1007.09 1007.33 1007.57 1007.81 1007.93 1008.01 1008.01 1007.89 1008.01 1008.13 1008.29 1008.41 1008.77 1009.13 1009.45 1009.57 1009.81 1010.09 1009.93 1010.21 1010.77 1011.25 1011.65 1011.89
1002.25 1002.25 1003.49 1007.57 1004.77 1002.49 1002.45 1002.73 1004.25 1003.89 1004.93 1007.53 1009.25 1008.09 1008.77 1009.73 1013.01 1013.73 1011.61 1011.13 1009.65 1007.69 1005.97 1004.65 1004.09 1004.81 1005.57 1006.25 1006.37 1005.77 1005.09 1004.89 1004.89 1005.09 1005.25 1005.77 1006.21 1006.45 1006.53 1006.65 1006.73 1006.85 1007.01 1007.17 1007.29 1007.45 1007.77 1007.97 1008.13 1008.21 1008.45 1008.77 1009.13 1009.13 1009.45 1009.69 1009.77 1010.13 1010.69 1011.01 1011.13 1011.49 1011.69
1003.37 1005.73 1003.93 1005.05 1004.65 1006.01 1005.61 1005.37 1005.97 1005.65 1005.29 1005.37 1005.09 1008.17 1008.37 1008.85 1011.01 1011.73 1011.33 1011.85 1009.33 1005.85 1004.49 1003.69 1002.69 1002.93 1005.17 1005.21 1005.37 1004.85 1004.61 1004.41 1004.21 1004.33 1004.85 1005.29 1005.53 1005.81 1005.93 1005.97 1006.13 1006.33 1006.61 1006.73 1006.85 1006.89 1006.93 1007.05 1007.33 1007.81 1008.29 1008.61 1008.61 1008.93 1009.37 1009.49 1009.89 1010.01 1010.29 1010.41 1010.81 1011.17 1011.53
1005.73 1004.41 1002.01 1001.97 1002.73 1003.05 1003.97 1004.65 1005.53 1005.09 1006.41 1007.73 1009.33 1009.77 1008.49 1008.45 1008.33 1011.77 1011.37 1011.81 1007.57 1004.05 1004.05 1002.61 1002.45 1003.49 1005.01 1004.37 1003.73 1004.13 1004.13 1004.25 1004.37 1004.25 1004.21 1004.45 1005.05 1005.01 1005.05 1005.17 1005.33 1005.77 1006.01 1006.29 1006.37 1006.65 1007.05 1007.57 1007.93 1008.13 1008.01 1008.29 1008.69 1008.93 1008.85 1009.01 1009.37 1009.69 1009.93 1010.29 1010.49 1010.77 1011.25
1005.17 1003.49 1001.45 1000.49 1000.89 1001.29 1001.69 1002.37 1003.89 1003.09 1003.81 1004.69 1006.85 1010.53 1009.05 1008.21 1008.17 1008.65 1008.77 1009.45 1007.49 1003.01 1002.65 1002.09 1001.73 1002.65 1003.33 1003.61 1003.85 1004.05 1003.97 1003.89 1003.81 1003.69 1003.61 1003.85 1003.89 1004.09 1004.33 1004.57 1004.85 1005.09 1005.53 1005.77 1006.01 1006.37 1006.65 1006.85 1007.01 1007.21 1007.57 1007.85 1007.97 1008.09 1008.37 1008.69 1009.05 1009.09 1009.13 1009.41 1009.89 1010.41 1010.81
1003.29 1002.21 1001.65 1001.33 1001.33 1001.81 1003.41 1002.81 1001.69 1002.93 1004.37 1003.73 1004.81 1005.33 1005.57 1006.97 1008.09 1009.13 1010.13 1010.45 1007.69 1003.33 1003.69 1003.45 1002.57 1002.89 1003.45 1003.45 1003.37 1003.69 1003.85 1003.65 1003.57 1003.53 1003.57 1003.69 1003.89 1003.77 1003.65 1003.81 1004.25 1004.69 1005.17 1005.61 1006.21 1006.65 1006.85 1006.97 1007.17 1007.29 1007.29 1007.33 1007.53 1007.77 1007.93 1008.21 1008.53 1008.49 1008.89 1009.33 1009.73 1010.17 1010.49
1005.65 1004.33 1002.73 1002.37 1001.73 1001.89 1003.09 1003.29 1002.49 1002.09 1001.89 1002.09 1003.93 1003.89 1006.17 1006.81 1007.53 1006.89 1008.57 1011.29 1008.09 1003.37 1003.41 1002.81 1003.13 1003.37 1003.33 1003.33 1003.13 1003.05 1003.53 1003.53 1003.25 1003.25 1003.25 1003.29 1003.37 1003.45 1003.73 1004.13 1004.41 1004.81 1005.29 1005.73 1005.89 1005.85 1006.05 1006.17 1006.33 1006.53 1006.81 1007.01 1007.13 1007.21 1007.33 1007.65 1007.73 1007.85 1008.49 1008.93 1009.45 1009.81 1010.13
1010.21 1009.85 1008.89 1007.53 1005.77 1004.45 1002.65 1001.93 1002.25 1001.97 1002.13 1003.29 1004.37 1006.05 1006.25 1007.41 1007.81 1008.25 1007.53 1007.69 1005.37 1003.49 1003.21 1002.69 1003.05 1003.53 1003.45 1003.17 1002.85 1002.85 1002.61 1002.69 1003.01 1003.13 1003.13 1003.17 1003.29 1003.45 1003.57 1003.93 1004.41 1004.61 1004.61 1004.81 1005.17 1005.37 1005.45 1005.53 1005.73 1005.97 1006.21 1006.33 1006.45 1006.57 1006.73 1006.73 1007.13 1007.73 1008.13 1008.45 1008.93 1009.61 1010.13
1006.65 1005.49 1004.01 1002.41 1002.49 1002.33 1003.89 1002.69 1002.01 1002.57 1001.89 1001.57 1002.17 1003.69 1005.69 1006.73 1007.53 1007.85 1005.29 1004.41 1005.21 1004.81 1003.25 1003.21 1003.25 1003.57 1003.25 1003.33 1003.53 1003.29 1003.17 1003.13 1002.65 1002.49 1002.69 1002.85 1002.97 1003.09 1003.33 1003.61 1003.77 1003.97 1004.61 1004.85 1004.73 1004.85 1004.97 1005.13 1005.37 1005.57 1005.73 1005.93 1006.01 1006.17 1006.33 1006.49 1006.73 1007.21 1007.65 1008.33 1009.01 1009.89 1010.93
1002.53 1002.33 1002.57 1001.49 1002.17 1002.41 1002.09 1002.25 1002.29 1001.97 1002.21 1002.61 1003.25 1004.49 1005.13 1004.65 1006.77 1008.45 1005.01 1006.13 1004.61 1004.77 1003.29 1003.01 1003.09 1003.21 1003.13 1002.57 1002.29 1002.45 1002.57 1002.41 1002.41 1002.45 1002.53 1002.61 1003.01 1003.13 1003.25 1003.57 1003.97 1004.29 1004.17 1004.21 1004.53 1004.65 1004.81 1004.97 1005.05 1005.25 1005.29 1005.33 1005.49 1005.69 1005.97 1006.09 1006.37 1006.93 1007.61 1008.57 1009.57 1010.49 1011.17
1001.49 1000.93 1001.45 1001.29 1002.25 1002.13 1001.81 1001.61 1001.25 1002.01 1002.17 1003.01 1003.17 1003.17 1002.53 1004.41 1004.37 1006.01 1003.89 1005.21 1004.29 1003.33 1002.65 1001.93 1001.81 1001.57 1001.57 1001.37 1001.53 1001.17 1000.73 1001.57 1002.33 1002.69 1003.01 1003.25 1003.25 1003.09 1003.33 1003.45 1003.69 1003.97 1004.21 1004.25 1004.29 1004.45 1004.53 1004.61 1004.97 1005.05 1005.21 1005.41 1005.57 1005.81 1005.93 1006.25 1006.61 1007.05 1007.81 1008.77 1009.45 1009.85 1010.29
1001.77 1001.29 1000.85 1000.41 1001.53 1001.77 1001.85 1001.89 1001.61 1000.85 1001.57 1002.41 1001.69 1001.77 1002.57 1002.13 1002.33 1001.65 1001.97 1004.17 1003.29 1002.05 1001.57 1001.21 1000.49 1000.21 1000.21 1000.45 1000.69 1001.41 1002.05 1002.17 1002.29 1002.77 1003.01 1003.05 1002.93 1003.01 1003.17 1003.33 1003.61 1003.73 1003.69 1003.81 1004.01 1004.21 1004.45 1004.65 1004.77 1005.05 1005.25 1005.37 1005.49 1005.65 1005.81 1005.97 1006.33 1006.97 1007.61 1008.37 1008.89 1009.33 1009.73
1002.41 1001.45 1000.61 1000.37 1000.97 1001.73 1002.33 1001.25 1000.97 1001.21 1001.33 1001.29 1000.93 1001.25 1003.05 1002.77 1002.69 1003.33 1003.37 1003.61 1004.25 1001.37 999.89 1000.05 1000.37 1000.85 1000.97 1001.21 1001.29 1001.21 1001.33 1001.89 1002.33 1002.57 1002.85 1002.85 1002.89 1002.93 1003.05 1003.33 1003.53 1003.53 1003.77 1004.09 1004.37 1004.53 1004.61 1004.73 1004.77 1004.77 1004.81 1004.89 1005.09 1005.45 1005.77 1006.05 1006.45 1007.13 1007.45 1008.09 1008.37 1008.77 1009.41
1003.21 1001.17 1001.37 1000.85 1001.13 1001.61 1002.21 1001.69 1000.89 1001.13 1002.25 1002.97 1002.37 1002.01 1001.77 1002.77 1002.97 1003.21 1004.69 1005.57 1004.21 1001.33 1000.81 1000.77 1001.17 1001.37 1001.45 1001.41 1001.25 1001.37 1001.57 1001.65 1001.97 1002.37 1002.61 1002.73 1002.85 1003.01 1003.09 1003.25 1003.45 1003.77 1003.97 1004.05 1004.13 1004.25 1004.37 1004.49 1004.57 1004.77 1005.01 1005.17 1005.45 1005.61 1005.73 1006.25 1006.77 1007.01 1007.37 1007.89 1008.49 1009.13 1009.61
1003.01 1000.69 1000.53 1001.37 1001.89 1002.69 1003.73 1002.93 1001.21 1000.41 1000.25 1000.13 1000.65 1000.29 1000.77 1000.25 1000.13 1002.97 1003.89 1003.65 1001.13 1000.21 1000.73 1001.09 1001.77 1001.65 1001.81 1001.89 1001.69 1001.61 1001.89 1002.13 1002.17 1002.29 1002.25 1002.49 1002.77 1002.69 1003.05 1003.25 1003.29 1003.37 1003.53 1003.61 1003.65 1003.77 1003.93 1004.01 1004.25 1004.37 1004.53 1005.05 1005.45 1005.65 1005.97 1006.25 1006.69 1007.21 1007.69 1008.09 1008.45 1008.69 1008.77
1002.45 1000.97 1001.13 1001.29 1003.09 1006.13 1004.85 999.77 998.77 998.77 1000.13 999.77 1000.69 1001.93 1001.81 1001.73 1001.13 1000.37 1000.05 999.49 1000.25 1000.77 1000.73 1000.69 1001.25 1001.29 1001.29 1001.41 1001.53 1001.37 1001.41 1001.57 1002.17 1002.37 1002.37 1002.29 1002.21 1002.53 1002.85 1002.89 1002.85 1002.77 1002.81 1002.93 1002.97 1002.97 1003.09 1003.21 1003.21 1003.41 1003.77 1004.17 1004.57 1004.85 1005.33 1005.81 1006.17 1006.69 1007.01 1007.41 1007.61 1007.97 1008.25
1001.69 1001.97 1002.05 1003.69 1005.73 1005.01 1000.33 999.13 999.01 998.93 999.05 1000.17 1001.17 1001.93 1002.13 1001.85 1001.61 1001.77 1001.05 1000.77 1000.69 999.73 999.73 999.53 1000.25 1000.33 1000.29 1000.25 1000.53 1000.69 1001.05 1001.09 1001.25 1001.41 1001.85 1001.73 1001.73 1001.69 1001.81 1002.29 1002.49 1002.65 1002.93 1003.01 1002.97 1003.01 1002.85 1002.89 1003.25 1003.57 1003.85 1004.05 1004.57 1004.85 1005.05 1005.57 1005.93 1006.41 1006.77 1007.25 1007.77 1008.13 1008.49
1002.57 1003.17 1002.93 1005.49 1005.65 1001.61 1000.57 999.65 999.45 999.21 998.81 998.69 998.97 1001.25 1001.13 1001.73 1002.05 1002.01 1001.61 1001.33 1001.05 1000.73 1000.57 1000.69 1000.13 999.53 999.97 1000.37 1000.33 1000.29 1000.73 1000.09 1000.09 1000.85 1001.01 1000.97 1001.17 1001.29 1001.29 1001.21 1001.53 1001.61 1001.41 1001.37 1002.01 1002.45 1002.85 1003.05 1003.29 1003.45 1003.89 1004.17 1004.45 1004.85 1004.93 1005.21 1005.77 1006.05 1006.53 1007.09 1007.61 1007.93 1008.05
1002.21 1003.09 1002.81 1003.33 1002.37 1002.05 1001.25 1001.21 1000.53 1001.33 1002.09 1000.13 999.41 1003.25 1002.89 1001.45 1001.33 1001.25 1002.17 1001.61 1001.25 1001.05 1000.93 1000.65 1000.81 1000.89 1000.89 1001.33 1001.69 1001.01 1001.01 1001.29 1001.05 1000.09 999.93 1000.33 1000.57 1000.61 1000.89 1001.09 1000.97 1001.37 1001.97 1002.17 1002.41 1002.65 1002.89 1002.93 1003.29 1003.57 1003.77 1004.05 1004.41 1004.97 1005.33 1005.57 1005.77 1006.13 1006.45 1006.81 1007.09 1007.25 1007.49
1002.85 1002.21 1005.33 1005.09 1004.57 1006.13 1004.13 1001.05 1000.13 999.49 1000.13 1000.33 997.97 999.21 1002.85 1000.77 1000.69 1001.37 1001.65 1001.69 1001.49 1001.29 1001.17 1001.05 1000.77 999.89 1001.17 1003.09 1002.53 1000.77 1000.33 1000.37 1000.25 1000.93 1001.09 1001.17 1001.29 1001.41 1001.45 1002.17 1002.25 1002.37 1002.61 1002.81 1002.97 1002.81 1002.97 1003.33 1003.49 1003.65 1003.85 1004.17 1004.61 1005.13 1005.53 1005.73 1005.97 1006.21 1006.37 1006.61 1006.77 1007.05 1007.25
1003.05 1002.61 1003.69 1004.89 1006.13 1005.53 1002.17 1001.33 1000.33 999.77 999.81 999.49 999.05 999.69 1004.21 1001.97 1001.49 1001.45 1001.57 1001.61 1001.05 1000.57 1000.61 1000.89 1000.25 1000.85 1003.33 1003.73 1002.49 1001.21 1000.85 1000.77 1000.57 1000.77 1001.33 1001.17 1001.45 1001.77 1001.81 1001.57 1001.77 1002.69 1003.01 1003.01 1003.13 1003.29 1003.41 1003.57 1003.81 1003.81 1003.97 1004.25 1004.69 1005.13 1005.41 1005.61 1005.77 1006.01 1006.21 1006.37 1006.69 1006.85 1006.97
1004.09 1003.21 1003.77 1005.33 1004.97 1004.69 1002.17 1001.33 1000.73 999.97 999.61 998.73 999.13 1005.25 1005.89 1002.29 1001.77 1001.61 1001.05 1001.29 1001.53 1001.57 1001.45 1001.17 1001.09 1001.81 1003.53 1003.85 1002.93 1002.05 1001.65 1001.73 1001.77 1001.49 1001.29 1001.81 1001.97 1002.21 1002.57 1002.77 1002.89 1003.01 1003.17 1003.13 1003.45 1003.53 1003.41 1003.57 1003.85 1003.97 1004.13 1004.37 1004.65 1004.97 1005.25 1005.37 1005.61 1005.77 1005.97 1005.97 1005.89 1006.09 1006.49
1003.05 1003.73 1005.17 1004.73 1004.57 1002.33 1001.65 1001.41 1000.73 1000.05 999.17 998.93 1003.25 1006.29 1003.65 1002.05 1001.69 1001.85 1001.29 1001.45 1001.37 1001.41 1001.45 1001.37 1002.57 1002.97 1002.09 1002.21 1002.21 1001.81 1001.81 1002.01 1002.21 1002.17 1002.37 1002.53 1002.45 1002.53 1002.73 1003.09 1003.29 1003.45 1003.45 1003.13 1002.97 1003.21 1003.53 1003.85 1004.05 1004.13 1004.21 1004.45 1004.73 1004.85 1005.05 1005.33 1005.53 1005.61 1005.53 1005.77 1006.17 1006.45 1006.69
1004.33 1005.09 1004.77 1006.09 1004.89 1002.33 1001.49 1000.61 1000.85 1000.09 999.85 1003.13 1005.49 1003.09 1001.93 1001.69 1002.33 1002.05 1001.73 1001.93 1001.77 1001.45 1001.73 1001.89 1002.21 1002.25 1001.73 1001.45 1001.45 1001.85 1002.29 1002.69 1003.17 1003.25 1003.17 1003.09 1003.13 1003.29 1003.49 1003.65 1003.73 1003.73 1003.77 1003.77 1003.85 1003.89 1003.89 1004.05 1004.05 1004.13 1004.17 1004.41 1004.61 1004.85 1005.09 1005.49 1005.73 1005.77 1006.05 1006.25 1006.49 1006.77 1006.97
1005.69 1005.17 1005.53 1005.89 1006.25 1002.49 1001.01 1001.69 1000.13 1000.05 1001.29 1003.49 1001.97 1001.89 1002.01 1002.09 1002.69 1002.69 1002.17 1001.73 1001.97 1001.49 1002.25 1002.29 1002.21 1002.01 1001.97 1002.01 1002.21 1002.61 1002.81 1002.85 1003.25 1003.41 1003.45 1003.49 1003.49 1003.69 1003.85 1003.81 1003.89 1003.93 1004.05 1004.05 1004.05 1004.05 1004.05 1004.13 1004.21 1004.25 1004.33 1004.61 1004.93 1005.41 1006.05 1006.05 1005.85 1005.89 1006.13 1006.37 1006.57 1006.85 1007.05
1005.37 1006.17 1006.21 1006.53 1004.25 1002.81 1001.29 1001.49 1002.21 1002.85 1001.89 1001.53 1001.49 1001.77 1003.17 1002.77 1002.77 1003.01 1003.05 1002.61 1002.13 1001.93 1002.09 1002.53 1002.77 1002.81 1002.89 1003.05 1003.05 1002.93 1003.09 1003.25 1003.37 1003.53 1003.73 1003.77 1003.97 1004.05 1004.13 1004.17 1004.17 1004.17 1004.25 1004.25 1004.21 1004.21 1004.21 1004.37 1004.61 1004.77 1004.97 1005.37 1005.73 1006.01 1006.09 1005.77 1005.69 1005.85 1006.05 1006.29 1006.57 1006.81 1007.05
1004.93 1005.37 1005.17 1003.69 1002.77 1002.81 1001.97 1001.69 1002.33 1002.57 1002.05 1001.65 1001.93 1002.33 1002.93 1003.05 1003.17 1002.81 1003.21 1003.45 1003.09 1002.57 1002.33 1002.53 1002.49 1002.61 1002.53 1002.73 1002.97 1002.73 1002.97 1002.85 1003.33 1003.41 1003.65 1003.81 1004.13 1004.33 1004.29 1004.25 1004.21 1004.29 1004.37 1004.41 1004.41 1004.57 1004.73 1004.89 1004.97 1005.05 1005.05 1005.37 1005.65 1005.93 1005.93 1005.69 1005.89 1006.01 1006.21 1006.41 1006.69 1007.05 1007.25
1003.77 1003.45 1003.77 1003.57 1003.17 1002.97 1002.61 1001.89 1001.65 1002.09 1002.53 1002.49 1002.09 1002.25 1002.97 1003.41 1003.25 1003.05 1003.49 1003.61 1003.45 1003.17 1002.65 1002.93 1003.49 1003.25 1002.97 1002.85 1002.85 1002.85 1003.21 1003.21 1003.45 1003.57 1003.37 1003.41 1003.57 1003.73 1003.89 1004.09 1004.29 1004.45 1004.57 1004.69 1004.85 1005.05 1005.17 1005.17 1005.21 1005.13 1005.09 1005.17 1005.57 1005.77 1005.69 1005.77 1005.93 1006.17 1006.41 1006.77 1007.09 1007.33 1007.41
1003.77 1006.41 1003.77 1004.05 1004.01 1003.69 1003.25 1002.77 1002.49 1002.17 1002.21 1002.65 1002.45 1002.77 1003.05 1003.25 1002.97 1002.89 1002.89 1003.01 1003.21 1003.25 1003.09 1003.25 1003.57 1003.65 1003.33 1003.09 1003.45 1003.33 1003.33 1003.25 1002.97 1002.93 1002.85 1003.17 1003.53 1003.69 1004.01 1004.29 1004.53 1004.73 1004.81 1004.93 1005.05 1005.21 1005.49 1005.37 1005.25 1005.21 1005.17 1005.25 1005.49 1005.69 1005.81 1005.89 1006.01 1006.21 1006.53 1006.81 1007.05 1007.13 1007.21
1003.65 1004.85 1004.57 1004.57 1004.33 1004.29 1003.93 1003.57 1003.17 1003.09 1002.85 1002.57 1002.53 1002.61 1002.85 1002.93 1003.01 1003.13 1003.17 1002.85 1003.45 1003.49 1003.97 1003.93 1003.89 1003.89 1003.93 1003.53 1003.13 1002.81 1002.61 1002.41 1002.49 1002.65 1002.85 1002.97 1003.53 1004.09 1004.45 1004.65 1004.65 1004.85 1004.93 1004.97 1005.13 1005.29 1005.45 1005.33 1005.17 1005.17 1005.25 1005.45 1005.61 1005.73 1005.93 1006.05 1006.17 1006.37 1006.69 1006.93 1007.17 1007.29 1007.41
1004.93 1004.13 1004.41 1004.73 1004.65 1004.57 1004.57 1004.25 1003.85 1003.61 1003.45 1003.17 1003.05 1002.81 1002.81 1002.65 1002.65 1002.77 1002.97 1003.33 1004.01 1003.93 1004.05 1004.09 1004.21 1004.33 1004.21 1004.05 1003.65 1003.09 1002.85 1002.97 1002.97 1002.93 1003.05 1003.37 1003.89 1004.21 1004.53 1004.65 1004.69 1004.85 1004.89 1005.05 1005.09 1005.13 1005.13 1005.01 1004.97 1005.13 1005.25 1005.37 1005.57 1005.77 1005.85 1005.89 1005.97 1006.25 1006.61 1006.89 1007.25 1007.53 1007.65
1005.21 1004.93 1004.77 1004.25 1005.57 1007.05 1005.89 1005.13 1004.65 1004.17 1003.77 1003.49 1003.61 1003.85 1003.81 1003.33 1002.77 1002.45 1002.89 1003.17 1003.29 1003.73 1003.93 1003.89 1004.29 1004.73 1004.65 1004.17 1004.09 1003.65 1003.33 1003.17 1003.17 1003.13 1003.25 1003.69 1003.97 1004.17 1004.17 1004.37 1004.57 1004.73 1004.77 1004.73 1004.77 1004.81 1004.81 1004.77 1004.89 1005.09 1005.25 1005.45 1005.57 1005.49 1005.53 1005.69 1005.81 1006.17 1006.61 1006.85 1007.09 1007.45 1007.81
1004.17 1003.69 1003.33 1003.53 1003.85 1004.81 1005.05 1004.77 1004.49 1004.17 1003.69 1003.37 1003.61 1003.89 1004.05 1004.09 1003.69 1003.33 1003.21 1003.41 1003.29 1003.41 1004.25 1004.13 1004.17 1005.13 1005.05 1004.89 1004.45 1004.17 1003.85 1003.61 1003.53 1003.29 1003.49 1003.69 1004.01 1004.13 1004.21 1004.45 1004.57 1004.57 1004.53 1004.45 1004.53 1004.65 1004.69 1004.73 1004.93 1005.13 1005.37 1005.45 1005.53 1005.53 1005.53 1005.53 1005.49 1005.61 1005.65 1005.89 1006.21 1006.33 1006.69
1003.09 1002.53 1002.61 1003.17 1003.49 1004.53 1004.93 1004.65 1004.37 1004.13 1003.85 1003.65 1003.93 1003.97 1003.81 1003.77 1003.65 1003.45 1003.53 1003.73 1004.17 1004.69 1004.61 1004.65 1004.65 1005.09 1005.05 1004.81 1004.57 1004.33 1004.05 1003.89 1003.81 1003.53 1003.53 1003.73 1003.77 1003.97 1004.25 1004.17 1004.21 1004.29 1004.41 1004.45 1004.41 1004.53 1004.65 1004.81 1005.01 1005.13 1005.33 1005.37 1005.41 1005.41 1005.33 1005.21 1005.01 1005.53 1005.73 1005.69 1006.01 1006.25 1006.61
1003.77 1003.25 1003.13 1003.29 1003.69 1004.21 1004.25 1004.21 1004.25 1004.17 1003.93 1003.77 1004.05 1004.25 1004.13 1004.13 1004.13 1003.97 1004.25 1004.53 1004.45 1004.41 1004.57 1004.57 1004.49 1004.45 1004.45 1004.33 1004.17 1004.17 1004.13 1003.93 1003.77 1003.97 1004.21 1004.13 1004.01 1004.01 1004.05 1004.09 1003.97 1003.97 1004.17 1004.25 1004.37 1004.49 1004.61 1004.77 1004.97 1005.13 1005.33 1005.45 1005.33 1005.09 1004.97 1004.85 1005.05 1005.69 1005.93 1005.89 1005.97 1006.25 1006.57
Wind_Speed
10 8 5 5 8 6 3 6 7 8 7 9 2 2 0 3 2 5 2 3 4 7 5 2 4 10 10 8 14 11 10 10 12 13 14 15 15 15 15 16 16 16 13 14 15 15 15 14 14 16 17 17 18 16 15 16 15 13 14 14 13 12 11
8 9 8 7 8 7 3 5 9 2 4 4 5 6 1 1 4 5 3 8 3 3 7 1 2 5 8 13 15 18 14 10 14 15 15 16 16 17 18 19 17 16 16 18 17 16 17 18 19 19 18 17 16 16 17 18 16 16 16 14 14 12 12
6 5 4 9 7 7 13 11 7 5 3 5 2 3 2 1 2 2 3 2 3 8 6 1 3 7 9 12 12 9 10 13 17 16 17 17 15 14 14 14 13 13 13 15 16 17 18 18 17 17 17 16 13 13 14 15 18 19 17 13 12 10 11
4 3 6 11 11 4 1 5 2 1 5 5 5 7 4 4 4 2 5 1 6 7 6 10 9 10 12 10 9 15 20 21 18 17 17 15 14 14 14 15 15 15 16 17 19 18 18 17 17 16 15 13 14 15 14 14 14 11 9 11 12 12 11
0 6 4 10 10 6 4 5 4 2 0 3 4 1 4 6 5 5 4 3 4 7 7 8 11 11 12 16 17 16 16 17 17 15 14 14 15 14 15 15 15 15 15 16 16 17 17 16 15 13 12 15 15 13 12 13 15 15 15 15 13 12 10
5 6 6 7 9 11 9 11 10 8 7 4 5 9 1 2 3 4 3 8 6 9 3 8 8 4 7 13 18 17 15 14 13 14 14 14 14 15 16 16 15 14 14 14 15 13 10 10 11 13 14 13 12 13 15 15 14 14 15 13 14 12 10
10 10 10 7 7 10 12 13 10 10 5 6 5 4 4 1 2 5 4 2 8 7 4 6 6 5 11 13 11 12 12 14 15 15 15 14 16 17 17 15 14 14 13 15 15 16 17 17 17 17 15 14 16 17 15 13 15 16 16 15 12 11 12
5 8 5 6 3 4 3 7 4 8 8 8 8 7 8 7 1 1 1 2 4 2 2 5 7 5 4 7 11 12 11 12 14 15 14 15 15 14 15 15 12 11 11 10 9 11 13 13 12 14 15 15 14 14 14 14 16 18 15 12 12 12 13
6 8 8 6 2 3 3 5 5 7 7 9 3 6 2 3 6 8 7 7 2 4 3 1 1 4 8 12 11 12 14 12 13 14 14 13 14 15 13 10 10 8 8 11 13 15 15 16 15 15 15 15 15 16 15 16 17 16 13 11 12 13 14
10 10 11 10 7 5 3 2 5 7 11 9 5 5 2 5 2 5 4 3 8 8 5 0 0 4 5 7 10 9 11 14 14 13 13 13 14 14 13 12 9 11 14 14 13 14 15 15 16 15 16 16 16 16 16 16 16 13 13 12 13 12 12
12 10 7 7 3 3 4 4 8 8 8 13 9 6 7 9 5 7 7 8 4 3 4 4 5 5 9 10 6 10 10 9 11 12 13 13 14 14 15 14 12 11 8 12 15 15 15 15 15 15 15 16 16 16 16 15 14 13 13 11 10 10 7
16 12 12 9 7 6 8 9 8 9 10 9 9 9 9 7 11 6 5 5 10 11 8 8 8 7 6 7 13 14 10 12 14 14 13 13 10 9 10 9 11 11 13 13 13 14 14 14 14 14 14 15 16 16 17 15 14 12 9 8 8 10 12
16 17 16 14 5 4 5 9 10 12 10 10 13 10 7 12 10 12 7 9 11 12 11 12 14 15 15 14 15 18 19 12 7 9 10 10 12 13 12 12 11 11 11 12 13 12 13 13 13 14 13 12 11 11 10 9 9 10 8 12 13 14 14
13 14 17 16 14 10 7 7 9 13 14 15 15 12 8 16 8 12 11 13 15 13 13 13 17 15 12 9 3 3 3 9 11 10 11 13 14 14 13 12 10 10 12 12 12 11 10 12 13 12 12 12 12 13 13 12 11 8 12 13 14 15 16
9 12 14 13 12 12 13 13 11 11 12 15 14 7 5 6 0 1 6 14 12 9 6 9 1 4 4 5 9 13 12 10 11 12 13 13 13 11 9 7 8 9 7 3 2 4 6 7 10 13 12 12 12 10 9 9 9 8 12 14 15 15 15
7 8 13 14 11 11 12 13 14 12 7 7 4 5 6 6 6 4 6 5 8 9 3 5 3 4 5 9 10 9 10 11 11 12 11 10 9 7 7 6 5 4 4 5 5 6 6 6 6 6 7 6 6 10 7 5 7 11 13 14 13 12 13
9 9 10 13 6 4 9 11 10 7 7 4 2 1 5 6 11 7 6 9 12 10 6 7 3 5 4 3 5 5 3 2 5 9 10 8 6 6 5 5 6 6 6 5 6 6 6 9 9 9 8 7 6 4 6 8 10 10 11 12 13 15 17
6 5 6 7 7 9 5 3 4 6 9 12 9 3 2 1 3 6 8 7 5 5 7 11 9 9 8 6 2 2 6 8 5 2 4 5 6 5 5 7 8 8 7 6 7 8 8 8 11 10 10 11 9 9 11 12 14 14 15 15 16 17 17
6 3 6 6 11 7 4 4 8 3 12 11 14 9 6 4 4 2 0 1 8 10 10 11 9 7 7 7 6 5 5 6 7 8 5 5 6 7 7 6 6 6 7 8 7 7 8 8 6 7 7 7 9 10 12 13 13 14 14 14 13 13 13
3 3 6 8 4 2 3 5 5 7 7 13 14 9 6 6 4 2 0 1 2 4 3 3 7 13 12 7 4 6 6 8 11 8 8 8 6 6 6 7 5 5 6 8 9 7 4 5 7 8 9 9 11 10 10 13 12 14 14 14 13 14 16
6 5 4 4 0 2 4 2 3 3 4 0 12 6 2 4 6 8 2 3 4 5 5 6 7 7 8 9 3 1 1 1 1 7 10 10 9 7 5 4 5 4 1 3 4 5 6 7 8 8 9 9 9 9 9 9 11 12 14 15 15 16 15
4 7 5 3 3 4 4 3 7 4 3 8 4 11 2 6 7 5 3 5 5 8 7 7 7 9 14 7 1 2 2 1 4 2 2 3 3 3 3 2 2 2 2 3 3 6 7 5 5 7 8 10 10 10 9 10 11 12 14 14 14 15 16
1 3 8 4 4 2 3 7 10 6 4 4 4 10 3 2 4 4 1 3 8 12 12 7 5 9 8 4 2 2 3 2 6 8 4 6 6 4 3 7 7 4 4 4 4 4 5 7 6 7 9 11 11 11 10 11 12 13 13 13 13 14 15
1 3 4 3 1 2 3 8 7 8 7 2 8 6 3 2 6 3 3 5 3 4 4 4 8 8 10 6 1 4 5 4 4 2 9 8 7 6 4 1 2 5 5 7 4 5 8 8 7 8 9 10 11 11 12 12 13 13 13 14 15 14 12
2 5 1 2 1 3 4 6 10 8 1 6 7 7 4 3 5 2 4 5 5 4 5 3 8 2 4 4 0 5 7 8 8 7 6 5 3 5 4 3 4 4 4 4 7 8 5 6 7 7 8 9 10 10 11 12 12 12 12 9 8 8 8
3 1 5 1 2 2 4 9 10 6 2 6 8 3 1 4 6 3 6 8 6 9 10 9 7 4 4 6 8 8 7 6 4 4 5 5 6 5 3 3 3 2 2 1 2 3 3 7 7 8 9 10 9 9 10 9 7 3 3 4 5 5 6
1 4 5 2 1 3 3 14 7 5 7 4 3 3 7 6 4 4 5 9 6 9 10 7 8 8 8 7 7 6 5 5 4 4 4 4 3 2 2 2 2 2 3 3 4 4 4 5 5 6 7 7 5 3 3 2 3 4 4 4 5 5 5
1 2 1 2 3 7 11 2 5 4 2 5 4 6 6 6 5 7 5 6 6 8 11 9 9 7 7 6 5 6 6 4 4 3 3 2 1 1 2 1 1 3 2 2 3 3 4 3 2 1 1 3 5 5 4 3 5 5 6 6 6 6 5
1 2 3 2 3 5 7 6 9 6 9 10 9 10 7 8 8 4 8 6 6 6 9 8 8 8 5 5 3 5 2 2 2 3 5 4 3 2 2 2 1 2 3 3 3 3 2 3 3 3 3 5 5 5 3 5 5 5 5 5 5 4 4
2 4 2 2 3 4 6 8 10 13 11 5 8 11 12 6 6 7 7 5 5 4 5 10 5 4 4 6 5 4 3 1 0 0 1 2 2 1 0 2 3 2 1 2 3 3 3 4 4 3 4 5 5 3 4 5 5 6 6 5 5 4 3
7 3 5 4 3 4 4 10 9 9 9 8 9 11 10 8 8 10 8 8 8 8 9 8 5 3 2 5 2 4 5 4 2 1 2 1 1 2 4 4 1 2 3 4 4 5 5 3 4 4 5 5 6 5 5 5 6 7 7 7 6 6 7
6 9 6 1 5 4 6 4 7 11 10 11 9 9 8 8 7 8 9 10 9 6 8 5 5 3 3 1 1 2 2 3 2 1 1 2 2 2 1 2 3 3 3 4 4 5 6 5 5 5 6 7 7 7 5 5 5 5 4 3 4 3 4
4 8 5 3 6 10 8 7 6 6 5 8 9 9 10 9 10 10 12 11 6 7 9 8 9 9 9 6 3 1 1 2 1 1 2 3 3 3 4 5 5 6 4 3 4 6 6 6 6 7 8 8 8 8 7 7 7 7 6 5 5 3 2
10 9 9 10 11 5 1 2 1 2 2 6 7 5 8 8 8 8 11 9 10 10 10 12 11 11 9 10 6 4 0 2 3 4 4 3 4 5 5 4 4 4 4 6 7 7 7 7 8 9 9 8 8 9 8 7 8 10 8 7 7 5 4
8 2 7 3 8 8 3 2 1 2 1 7 11 9 6 4 4 8 11 11 11 11 8 9 12 7 7 8 7 5 4 4 5 5 4 5 4 5 5 6 5 6 6 7 8 8 8 7 8 9 9 9 8 7 7 7 8 8 8 7 5 5 5
6 7 8 5 5 9 5 4 4 4 3 9 11 8 8 9 9 10 10 8 8 5 5 6 4 2 1 2 3 5 5 3 2 3 3 2 4 4 5 7 7 7 7 8 9 10 8 8 9 9 9 7 7 6 6 7 6 3 4 7 5 5 6
6 2 7 9 12 10 7 8 8 7 6 8 9 8 8 9 9 9 10 7 6 8 8 8 6 6 7 8 9 8 5 4 3 2 2 2 4 5 5 5 7 8 8 7 7 8 8 9 9 8 8 7 6 6 5 5 5 6 4 5 6 6 6
Wind_Direction
222 219 184 206 152 211 231 123 197 211 175 154 118 27 300 93 54 253 185 297 297 319 322 326 304 197 199 192 221 213 202 182 176 189 191 194 195 193 194 201 204 198 190 192 193 193 194 194 194 197 196 194 196 195 195 200 202 198 198 197 193 191 187
252 223 211 218 185 161 124 201 227 170 116 117 153 212 18 77 166 252 128 195 253 126 240 282 25 153 182 185 200 207 197 172 182 194 192 195 195 195 197 202 200 194 191 191 193 195 194 195 197 199 199 198 197 196 196 197 198 199 201 195 193 191 185
229 213 200 264 261 200 214 227 163 174 251 260 298 105 201 149 217 246 276 229 249 182 234 263 234 177 191 197 195 188 184 186 197 195 198 199 195 193 198 203 200 196 194 195 196 198 198 201 201 201 201 197 196 200 201 200 201 203 198 193 191 190 184
215 182 145 223 237 270 293 53 190 128 123 176 158 201 175 144 240 116 284 94 223 207 214 195 215 201 188 172 165 191 194 197 195 196 196 191 189 195 198 201 201 198 195 194 197 197 197 199 200 204 201 199 202 202 199 203 209 206 195 194 192 191 189
213 223 193 213 199 208 226 206 218 188 217 223 119 70 134 181 175 184 193 279 277 255 208 180 212 201 180 170 187 195 199 199 198 194 189 190 191 194 199 202 203 199 197 198 201 201 203 200 202 200 197 201 204 200 202 203 201 201 199 198 191 193 179
234 238 235 193 182 187 193 192 209 176 133 131 178 247 36 110 133 206 152 244 264 268 194 194 213 205 165 199 186 188 192 191 192 197 196 187 192 200 200 204 201 199 198 197 201 201 201 195 199 200 203 202 201 201 204 202 204 204 202 196 194 186 175
234 229 245 224 203 198 196 184 218 189 153 126 133 182 255 27 261 118 145 162 268 244 211 208 222 195 184 185 192 189 184 187 193 198 195 193 195 198 203 203 201 199 194 196 192 193 193 195 198 199 198 200 202 204 202 201 202 207 203 198 189 175 175
287 278 261 268 216 169 277 279 212 161 184 172 170 173 185 177 230 118 32 213 250 285 252 243 239 237 190 179 178 183 185 189 194 194 196 198 202 210 208 203 196 193 193 184 187 194 198 202 201 200 201 204 205 205 204 202 206 209 202 191 182 176 179
267 286 313 306 353 148 179 195 218 198 183 179 147 106 105 170 216 171 156 227 281 272 306 285 127 171 172 178 187 179 181 194 194 197 198 199 203 208 208 199 194 181 166 180 192 194 197 200 200 199 200 202 203 205 204 204 210 207 196 186 181 183 184
215 220 217 223 253 217 223 209 207 202 179 162 126 189 139 196 263 135 152 241 251 271 307 66 186 180 197 199 182 191 191 185 189 195 197 198 203 206 204 201 179 182 192 191 191 196 200 200 199 198 200 203 204 206 206 206 208 198 194 187 186 179 183
213 218 211 241 130 104 182 226 195 211 200 181 170 120 136 194 197 178 220 180 196 251 228 217 234 199 187 189 190 188 200 207 201 195 193 198 200 202 203 199 197 196 187 192 198 199 200 200 201 201 202 203 205 205 208 206 204 198 193 183 174 164 128
214 206 213 214 161 194 206 193 215 205 196 176 152 166 204 163 112 220 259 214 158 216 212 217 216 224 232 212 189 196 201 194 192 192 197 201 202 206 206 205 198 194 199 201 199 200 201 203 204 206 205 206 205 203 206 203 201 195 182 157 122 113 118
219 219 221 227 204 204 214 209 199 199 196 180 185 200 179 141 182 199 229 194 184 200 202 204 205 192 198 200 200 200 196 182 176 187 192 196 201 204 205 206 198 200 202 205 205 202 204 203 202 206 206 209 211 214 214 205 197 193 138 121 132 143 146
225 226 229 233 227 235 241 235 227 211 183 191 194 197 170 176 192 196 180 180 198 192 200 202 208 204 195 201 185 82 133 181 183 178 188 195 201 204 205 204 201 203 208 208 208 204 202 201 205 205 207 208 207 208 206 198 196 162 130 140 147 154 157
232 227 228 233 227 226 240 239 228 222 203 196 200 177 173 203 347 46 158 175 214 242 212 205 59 85 76 102 161 184 187 178 178 183 190 196 200 205 203 198 202 209 215 210 175 193 205 207 210 209 208 208 210 208 203 196 185 130 136 148 158 161 158
243 224 217 228 230 231 234 242 237 223 199 180 164 160 183 160 191 132 103 184 226 233 95 95 88 128 150 182 186 186 190 186 180 183 190 194 199 192 193 194 194 196 184 186 187 193 200 206 206 207 209 205 195 210 199 175 129 139 148 155 152 145 143
224 233 203 213 200 208 255 256 239 209 178 158 139 98 156 174 149 128 164 220 219 200 152 126 144 166 215 229 208 183 140 133 165 182 187 189 183 190 178 173 182 187 188 189 189 191 185 190 192 197 186 179 189 161 142 139 133 136 144 148 151 153 158
223 226 163 149 138 202 232 239 202 160 162 152 132 98 6 353 93 200 186 212 182 125 153 159 167 164 184 177 225 188 170 151 141 144 175 188 186 176 174 177 181 193 194 195 201 199 195 196 196 186 169 171 166 153 145 143 148 154 156 165 165 165 163
208 164 106 141 204 216 245 322 334 158 107 81 95 96 67 6 346 353 112 118 166 179 176 165 158 154 156 152 135 137 164 143 151 160 181 181 173 184 185 194 204 188 177 171 173 178 192 189 169 151 163 148 140 149 154 155 156 157 162 162 165 164 162
54 95 157 190 220 242 316 18 18 329 97 122 88 34 4 21 4 355 341 289 223 179 151 144 153 145 146 127 141 156 173 162 154 152 173 182 168 173 188 179 187 169 183 184 175 179 152 130 150 158 155 153 151 160 162 159 161 161 160 160 159 160 173
161 165 142 152 234 36 12 32 338 50 294 2 117 121 350 341 5 27 350 66 84 94 103 115 102 101 88 90 48 347 173 230 225 166 172 166 180 179 184 183 198 210 216 160 150 134 150 153 150 161 155 153 147 147 156 159 157 160 163 170 173 176 175
123 124 92 94 49 122 265 238 274 292 252 283 140 96 359 322 10 39 333 128 112 106 105 112 141 120 94 86 47 295 328 132 147 83 71 74 99 108 113 65 58 94 106 99 130 150 150 153 155 148 150 145 145 149 155 159 163 170 173 177 176 175 178
41 68 131 166 125 237 225 279 288 291 312 348 291 93 172 264 8 355 80 127 131 133 134 156 125 100 105 146 208 277 302 80 124 116 108 121 127 123 133 149 144 159 165 155 144 122 136 152 168 158 149 147 148 160 164 169 174 176 182 178 176 181 184
66 135 84 108 173 205 272 273 284 286 315 335 76 87 241 284 342 318 121 102 88 63 54 81 70 107 133 181 231 312 15 41 10 72 132 132 129 123 101 58 141 151 146 125 124 154 178 179 158 158 151 152 160 164 175 173 181 185 182 184 188 187 180
4 78 97 79 7 296 264 272 288 310 271 71 92 165 229 343 6 331 115 107 121 111 81 71 88 11 163 172 235 41 58 46 48 51 47 57 68 104 114 147 143 150 164 161 171 181 178 154 155 158 159 157 168 174 173 183 188 188 189 182 177 179 172
30 75 88 225 230 243 293 309 305 284 61 87 164 231 212 40 24 355 103 98 92 99 92 97 96 108 94 85 71 66 60 85 76 56 46 56 57 46 58 102 108 128 126 104 108 121 149 168 163 166 167 172 172 173 181 186 185 164 135 156 157 156 163
52 30 75 23 85 266 335 322 332 17 97 204 209 122 41 38 16 10 53 85 74 85 78 64 82 73 62 68 73 71 65 74 68 54 46 39 48 87 116 153 200 161 164 163 167 161 163 172 175 174 171 169 162 129 95 108 117 118 129 125 139 147 152
122 49 84 186 220 276 321 359 100 327 71 143 98 96 74 33 43 29 23 39 78 87 89 82 64 64 64 39 55 75 67 67 63 66 60 65 86 176 255 271 222 168 181 158 146 154 156 161 148 87 98 95 93 107 125 125 116 123 127 134 138 150 153
114 183 205 269 292 295 315 55 98 91 66 72 90 87 91 81 47 43 66 40 19 68 99 91 97 89 83 102 59 86 56 50 92 155 168 168 168 223 242 240 221 198 203 187 168 147 116 102 86 82 72 107 125 126 148 128 121 124 127 125 127 120 121
195 79 81 340 342 3 56 66 84 89 80 59 80 88 86 62 88 76 78 47 31 25 77 87 46 79 127 102 101 106 130 135 242 278 82 99 111 123 4 249 224 212 159 165 157 139 98 90 93 92 90 116 124 138 137 119 120 112 108 102 99 112 127
83 69 314 26 36 357 29 91 91 91 98 99 92 80 83 89 85 86 75 70 54 43 45 65 73 31 38 91 125 165 172 168 165 145 87 40 119 168 213 230 203 183 182 181 173 145 120 104 107 99 100 99 111 115 113 122 124 126 125 134 143 160 175
116 161 201 30 16 3 342 347 88 98 101 98 92 105 110 104 86 76 70 67 58 57 51 43 57 17 324 69 147 48 42 59 34 18 352 277 271 248 231 239 203 202 207 202 147 127 126 131 120 113 110 116 120 117 109 102 100 99 103 111 127 109 82
45 71 93 134 76 36 15 1 17 28 40 87 94 100 107 104 93 86 76 65 45 48 60 39 34 24 360 334 334 43 54 34 5 269 240 236 213 202 187 205 188 196 180 145 128 130 140 145 134 129 133 133 122 109 115 115 109 96 89 83 71 58 77
149 160 182 166 120 145 185 358 10 74 63 85 81 60 57 71 89 89 83 72 68 47 45 58 36 29 359 348 333 320 286 206 217 221 211 212 189 194 198 181 179 165 156 147 144 146 153 151 141 140 138 128 127 130 122 122 121 112 117 128 140 167 202
177 198 123 135 118 113 150 159 332 341 1 73 68 67 77 67 79 89 91 84 65 62 43 55 68 30 351 330 322 297 275 256 214 220 193 176 179 183 180 170 174 163 158 153 145 152 160 151 140 136 134 137 137 138 137 142 139 133 138 150 154 152 179
55 116 126 148 115 109 104 93 95 69 49 87 82 77 75 74 69 67 70 73 91 98 93 84 108 159 123 3 7 340 311 297 272 250 235 214 207 182 182 180 170 159 159 161 161 161 158 144 139 140 141 145 142 153 160 163 132 124 171 156 169 197 205
111 15 99 100 101 101 102 90 74 62 50 69 77 68 71 73 69 75 80 76 68 74 65 50 41 42 32 21 21 9 343 299 277 256 287 215 190 185 182 172 177 173 172 168 162 154 149 145 143 144 138 147 161 166 175 178 135 143 182 182 190 198 194